Content
SEND FEEDBACK

Daily
Averages
Monthly
Summary
Colombia

BOGOTA, COLOMBIA


Home > South America > Colombia
Elevation: 8357 feet     Latitude: 04 42N     Longitude: 074 08W

WEATHER
 
SELECT A DAY
Number of Records: 173,411;   Date Range: 6/30/96 - 11/19/14
 
SHARE

PRINT THIS DATA

[ ← Previous Day ]
WEATHER ALMANAC - JUNE 15, 2013
[ Next Day → ]
[ °C ]   °F
Weather ElementAverageHighLow
Temperature57.9 °F68 °F (1:00 pm)48.2 °F (5:00 am)
Dewpoint49.1 °F53 °F (10:00 pm)46 °F (4:00 pm)
Humidity73.1 %100 % (1:00 am)37 % (4:00 pm)
Barometer30.32 in30.38 in (9:00 pm)30.24 in (3:00 pm)
Wind Speed7.6 mph19.6 mph (12:00 pm)
Weather ElementAverage
Visibility6.7 mi
Wind DirectionESE (122.8 °)

Weather ElementTotal
Precipitation---
Heating Degree Days6.9 (Base 65)
Growing Degree Days8.1 (Base 50)
Averaged from 33 records on June 15, 2013
WEATHER CONDITIONS BREAKOUT
WIND DIRECTION BREAKOUT
WEATHER BY HOUR - JUNE 15, 2013
[ °C ]   °F
Local TimeTemperatureDewpointHumidityBarometerVisibilityWind DirectionWind SpeedGust SpeedPrecipitationEventsConditions
1:00 AM51.0 °F49.0 °F92 %1.0 miCalmHaze
1:00 AM50.0 °F50.0 °F100 %30.33 in6.2 miCalmScattered Clouds
2:00 AM50.0 °F48.2 °F94 %30.30 in6.2 miNE (50°)4.6 mphScattered Clouds
3:00 AM51.8 °F48.2 °F88 %30.30 in6.2 miNE (40°)4.6 mphMostly Cloudy
4:00 AM51.0 °F48.0 °F86 %9.0 miNorth4.5 mphHaze
4:00 AM51.8 °F48.2 °F88 %30.31 in6.2 miNorth (360°)3.5 mphScattered Clouds
5:00 AM48.2 °F46.4 °F93 %30.32 in6.2 miNE (50°)3.5 mphScattered Clouds
5:30 AM50.0 °F48.2 °F94 %30.32 in6.2 miNNE (30°)4.6 mphScattered Clouds
6:00 AM50.0 °F48.2 °F94 %30.33 in6.2 miNNE (30°)3.5 mphScattered Clouds
7:00 AM54.0 °F50.0 °F81 %9.0 miENE (60°)2.2 mphHaze
7:00 AM53.6 °F50.0 °F88 %30.34 in6.2 miENE (60°)8.1 mphMostly Cloudy
8:00 AM57.2 °F50.0 °F77 %30.36 in6.2 miENE (60°)5.8 mphScattered Clouds
9:00 AM59.0 °F51.8 °F77 %30.36 in6.2 miNE (40°)5.8 mphMostly Cloudy
10:00 AM63.0 °F51.0 °F55 %9.0 miSW (230°)8.9 mphHaze
10:00 AM62.6 °F50.0 °F63 %30.36 in6.2 miSW (230°)6.9 mphMostly Cloudy
11:00 AM62.6 °F48.2 °F59 %30.34 in6.2 miEast (100°)3.5 mphMostly Cloudy
12:00 PM64.4 °F48.2 °F56 %30.32 in6.2 miSSE (160°)19.6 mphMostly Cloudy
1:00 PM67.0 °F48.0 °F40 %11.0 miSouth (180°)13.4 mphHaze
1:00 PM68.0 °F48.2 °F49 %30.28 in6.2 miSouth (180°)13.8 mphMostly Cloudy
2:00 PM68.0 °F48.2 °F49 %30.26 in6.2 miSSW (200°)13.8 mphMostly Cloudy
3:00 PM68.0 °F46.4 °F46 %30.24 in6.2 miSSE (150°)11.5 mphScattered Clouds
4:00 PM66.0 °F46.0 °F37 %11.0 miSSE (150°)11.2 mphHaze
4:00 PM66.2 °F46.4 °F49 %30.24 in6.2 miSSE (150°)11.5 mphScattered Clouds
5:00 PM62.6 °F50.0 °F63 %30.25 in6.2 miEast (80°)8.1 mphMostly Cloudy
6:00 PM62.6 °F50.0 °F63 %30.27 in6.2 miSSE (160°)13.8 mphScattered Clouds
7:00 PM59.0 °F48.2 °F67 %30.32 in6.2 miSE (140°)16.1 mphMostly Cloudy
7:00 PM59.0 °F48.0 °F57 %9.0 miSE (140°)15.7 mphHaze
7:30 PM57.2 °F50.0 °F77 %30.35 in6.2 miSE (140°)16.1 mphDrizzle
8:00 PM57.2 °F50.0 °F77 %30.36 in6.2 miSE (140°)3.5 mphLight Drizzle
9:00 PM55.4 °F51.8 °F88 %30.38 in6.2 miEast (80°)3.5 mphLight Drizzle
10:00 PM55.0 °F53.0 °F88 %6.0 miWest (270°)4.5 mphRainLight Drizzle
10:00 PM55.4 °F51.8 °F88 %30.38 in6.2 miWest (270°)4.6 mphLight Drizzle
11:00 PM55.4 °F51.8 °F88 %30.38 in6.2 miCalmLight Drizzle
Hourly data recorded from SKBO, located miles away from Bogota, Colombia







STORIES FROM OUR PARTNERS